VOE833R LFKJ-LFRS

Flight info

Callsign VOE833R
Flight time 1h 35m
Altitude 34000
Route TINOT DCT AMFAC DCT FJR DCT GAI DCT SECHE DCT UVELI DCT CNA DCT MANAK
Aircraft A319/M-SDE3FGHIRWY/LB1

Departure

Time 2026-05-06 15:01
Airport Ajaccio Napoléon Bonaparte airport (LFKJ)

Arrival

Time 2026-05-06 16:37
Airport Nantes Atlantique Airport (LFRS)
Time Latitude Longitude Altitude Speed Heading
2026-05-06 14:44 41.91758 8.79442 24 ft 0 kts 345°
2026-05-06 14:56 41.91763 8.79445 24 ft 1 kts 50°
2026-05-06 14:56 41.91776 8.79491 24 ft 8 kts 64°
2026-05-06 14:56 41.91823 8.79555 24 ft 10 kts 32°
2026-05-06 14:57 41.91891 8.79601 25 ft 11 kts 25°
2026-05-06 14:57 41.91969 8.79648 24 ft 13 kts 25°
2026-05-06 14:57 41.92057 8.79705 24 ft 14 kts 25°
2026-05-06 14:57 41.92154 8.79765 24 ft 15 kts 25°
2026-05-06 14:58 41.92257 8.79828 24 ft 16 kts 25°
2026-05-06 14:58 41.92366 8.79897 24 ft 17 kts 25°
2026-05-06 14:58 41.92479 8.79966 24 ft 18 kts 25°
2026-05-06 14:58 41.92594 8.80039 26 ft 18 kts 25°
2026-05-06 14:59 41.92707 8.80110 28 ft 17 kts 25°
2026-05-06 14:59 41.92811 8.80200 28 ft 18 kts 41°
2026-05-06 14:59 41.92902 8.80323 29 ft 18 kts 46°
2026-05-06 14:59 41.92950 8.80390 30 ft 4 kts 53°
2026-05-06 15:00 41.92964 8.80448 29 ft 8 kts 91°
2026-05-06 15:00 41.92942 8.80538 28 ft 11 kts 115°
2026-05-06 15:00 41.92890 8.80555 28 ft 0 kts 206°
2026-05-06 15:00 41.92872 8.80543 28 ft 21 kts 207°
2026-05-06 15:01 41.92471 8.80294 25 ft 102 kts 205°
2026-05-06 15:01 41.91619 8.79763 143 ft 154 kts 205°
2026-05-06 15:01 41.90686 8.79124 862 ft 155 kts 218°
2026-05-06 15:01 41.90096 8.77935 1621 ft 157 kts 244°
2026-05-06 15:02 41.89591 8.76641 2314 ft 163 kts 242°
2026-05-06 15:02 41.89018 8.75295 2948 ft 173 kts 240°
2026-05-06 15:02 41.88375 8.73860 3484 ft 191 kts 239°
2026-05-06 15:02 41.87628 8.72253 4000 ft 213 kts 238°
2026-05-06 15:03 41.86817 8.70524 4637 ft 231 kts 239°
2026-05-06 15:03 41.85955 8.68651 5399 ft 243 kts 239°
2026-05-06 15:03 41.85064 8.66692 6251 ft 252 kts 239°
2026-05-06 15:03 41.84222 8.64630 7114 ft 260 kts 246°
2026-05-06 15:04 41.83521 8.62398 8029 ft 265 kts 248°
2026-05-06 15:04 41.82945 8.60082 8986 ft 268 kts 259°
2026-05-06 15:04 41.83083 8.57593 9884 ft 278 kts 288°
2026-05-06 15:04 41.83986 8.55289 10806 ft 284 kts 296°
2026-05-06 15:05 41.84959 8.52956 11352 ft 300 kts 294°
2026-05-06 15:05 41.85939 8.50386 11827 ft 318 kts 292°
2026-05-06 15:05 41.86915 8.47629 12379 ft 332 kts 291°
2026-05-06 15:05 41.87871 8.44802 13182 ft 337 kts 290°
2026-05-06 15:06 41.88810 8.41945 14021 ft 340 kts 289°
2026-05-06 15:06 41.89747 8.39033 14793 ft 344 kts 289°
2026-05-06 15:06 41.90684 8.36081 15521 ft 349 kts 288°
2026-05-06 15:06 41.91634 8.33064 16245 ft 354 kts 287°
2026-05-06 15:07 41.92589 8.30012 16944 ft 359 kts 287°
2026-05-06 15:07 41.93545 8.26943 17615 ft 364 kts 287°
2026-05-06 15:07 41.94533 8.23765 18292 ft 368 kts 287°
2026-05-06 15:07 41.95506 8.20628 18965 ft 372 kts 286°
2026-05-06 15:08 41.96498 8.17420 19669 ft 374 kts 286°
2026-05-06 15:08 41.97498 8.14182 20364 ft 377 kts 286°
2026-05-06 15:08 41.98495 8.10954 21015 ft 379 kts 286°
2026-05-06 15:08 41.99510 8.07666 21652 ft 382 kts 285°
2026-05-06 15:09 42.00528 8.04362 22270 ft 384 kts 285°
2026-05-06 15:09 42.01552 8.01032 22854 ft 387 kts 285°
2026-05-06 15:09 42.02579 7.97686 23439 ft 390 kts 284°
2026-05-06 15:09 42.03597 7.94358 24004 ft 392 kts 285°
2026-05-06 15:10 42.04637 7.90949 24577 ft 394 kts 285°
2026-05-06 15:10 42.05680 7.87535 25132 ft 396 kts 285°
2026-05-06 15:10 42.06717 7.84138 25632 ft 399 kts 285°
2026-05-06 15:10 42.07784 7.80642 26131 ft 402 kts 285°
2026-05-06 15:11 42.08834 7.77194 26600 ft 405 kts 285°
2026-05-06 15:11 42.09913 7.73648 27063 ft 408 kts 285°
2026-05-06 15:11 42.10984 7.70123 27506 ft 410 kts 285°
2026-05-06 15:11 42.12058 7.66585 27935 ft 413 kts 285°
2026-05-06 15:12 42.13152 7.62978 28354 ft 415 kts 285°
2026-05-06 15:12 42.14236 7.59393 28770 ft 418 kts 285°
2026-05-06 15:12 42.15326 7.55786 29172 ft 420 kts 285°
2026-05-06 15:12 42.16431 7.52130 29713 ft 419 kts 285°
2026-05-06 15:13 42.17516 7.48541 30330 ft 415 kts 285°
2026-05-06 15:13 42.18594 7.44963 30913 ft 413 kts 285°
2026-05-06 15:13 42.19677 7.41362 31477 ft 410 kts 285°
2026-05-06 15:13 42.20738 7.37826 31991 ft 409 kts 285°
2026-05-06 15:14 42.21792 7.34305 32454 ft 408 kts 284°
2026-05-06 15:14 42.22860 7.30727 32869 ft 409 kts 284°
2026-05-06 15:14 42.23916 7.27189 33241 ft 410 kts 284°
2026-05-06 15:14 42.24985 7.23607 33624 ft 411 kts 284°
2026-05-06 15:15 42.26053 7.20019 33896 ft 413 kts 284°
2026-05-06 15:15 42.28181 7.12862 33906 ft 413 kts 284°
2026-05-06 15:16 42.30323 7.05641 33906 ft 413 kts 284°
2026-05-06 15:16 42.32447 6.98460 33905 ft 412 kts 284°
2026-05-06 15:17 42.34562 6.91290 33900 ft 412 kts 284°
2026-05-06 15:17 42.36684 6.84069 33899 ft 412 kts 284°
2026-05-06 15:18 42.38784 6.76908 33905 ft 411 kts 284°
2026-05-06 15:18 42.40878 6.69753 33898 ft 411 kts 284°
2026-05-06 15:19 42.42968 6.62581 33895 ft 410 kts 284°
2026-05-06 15:19 42.45051 6.55418 33895 ft 410 kts 284°
2026-05-06 15:20 42.47133 6.48238 33896 ft 410 kts 284°
2026-05-06 15:20 42.49202 6.41083 33900 ft 410 kts 284°
2026-05-06 15:21 42.51268 6.33915 33901 ft 410 kts 284°
2026-05-06 15:21 42.53336 6.26719 33903 ft 410 kts 284°
2026-05-06 15:22 42.55387 6.19572 33903 ft 410 kts 284°
2026-05-06 15:22 42.57449 6.12358 33908 ft 409 kts 284°
2026-05-06 15:23 42.59498 6.05171 33904 ft 409 kts 284°
2026-05-06 15:23 42.61527 5.98037 33907 ft 409 kts 284°
2026-05-06 15:24 42.63567 5.90841 33902 ft 409 kts 284°
2026-05-06 15:24 42.65595 5.83663 33905 ft 409 kts 284°
2026-05-06 15:25 42.67619 5.76481 33906 ft 409 kts 284°
2026-05-06 15:25 42.69653 5.69243 33907 ft 410 kts 284°
2026-05-06 15:26 42.71664 5.62066 33893 ft 409 kts 284°
2026-05-06 15:26 42.73689 5.54821 33902 ft 409 kts 284°
2026-05-06 15:27 42.75689 5.47638 33900 ft 409 kts 284°
2026-05-06 15:27 42.77703 5.40394 33902 ft 409 kts 284°
2026-05-06 15:28 42.79711 5.33144 33899 ft 409 kts 283°
2026-05-06 15:28 42.81711 5.25909 33899 ft 410 kts 283°
2026-05-06 15:29 42.83695 5.18704 33885 ft 410 kts 283°
2026-05-06 15:29 42.85884 5.11534 33887 ft 414 kts 288°
2026-05-06 15:30 42.88683 5.04628 33882 ft 421 kts 294°
2026-05-06 15:30 42.92108 4.98093 33903 ft 427 kts 301°
2026-05-06 15:31 42.96031 4.91998 33912 ft 428 kts 304°
2026-05-06 15:31 43.00031 4.85987 33904 ft 428 kts 304°
2026-05-06 15:32 43.06013 4.76967 33891 ft 429 kts 304°
2026-05-06 15:32 43.09983 4.70958 33892 ft 428 kts 304°
2026-05-06 15:33 43.13972 4.64906 33888 ft 427 kts 304°
2026-05-06 15:33 43.17938 4.58876 33888 ft 427 kts 304°
2026-05-06 15:34 43.21906 4.52829 33893 ft 428 kts 304°
2026-05-06 15:34 43.25845 4.46812 33874 ft 427 kts 305°
2026-05-06 15:35 43.29810 4.40746 33883 ft 427 kts 305°
2026-05-06 15:35 43.33767 4.34679 33884 ft 427 kts 304°
2026-05-06 15:36 43.37713 4.28610 33866 ft 427 kts 304°
2026-05-06 15:36 43.41660 4.22533 33886 ft 427 kts 304°
2026-05-06 15:37 43.45596 4.16458 33870 ft 427 kts 305°
2026-05-06 15:37 43.49544 4.10354 33890 ft 426 kts 305°
2026-05-06 15:38 43.53378 4.04159 33867 ft 423 kts 301°
2026-05-06 15:38 43.56521 3.97460 33888 ft 417 kts 292°
2026-05-06 15:39 43.58901 3.90254 33885 ft 412 kts 285°
2026-05-06 15:39 43.60527 3.82720 33882 ft 410 kts 280°
2026-05-06 15:40 43.61926 3.75112 33888 ft 411 kts 279°
2026-05-06 15:40 43.63322 3.67442 33888 ft 411 kts 280°
2026-05-06 15:41 43.64712 3.59795 33894 ft 412 kts 280°
2026-05-06 15:41 43.66106 3.52111 33887 ft 412 kts 280°
2026-05-06 15:42 43.67484 3.44474 33894 ft 413 kts 280°
2026-05-06 15:42 43.68865 3.36798 33898 ft 412 kts 280°
2026-05-06 15:43 43.70239 3.29112 33896 ft 412 kts 279°
2026-05-06 15:43 43.71608 3.21429 33901 ft 413 kts 280°
2026-05-06 15:44 43.72978 3.13707 33897 ft 414 kts 280°
2026-05-06 15:44 43.74351 3.05940 33904 ft 415 kts 280°
2026-05-06 15:45 43.75710 2.98212 33908 ft 415 kts 280°
2026-05-06 15:45 43.77069 2.90467 33904 ft 416 kts 280°
2026-05-06 15:46 43.78429 2.82682 33902 ft 415 kts 280°
2026-05-06 15:46 43.79772 2.74944 33907 ft 416 kts 280°
2026-05-06 15:47 43.81121 2.67144 33908 ft 416 kts 280°
2026-05-06 15:47 43.82463 2.59347 33901 ft 416 kts 281°
2026-05-06 15:48 43.83797 2.51568 33915 ft 417 kts 281°
2026-05-06 15:48 43.85133 2.43740 33908 ft 418 kts 281°
2026-05-06 15:49 43.86465 2.35898 33921 ft 419 kts 281°
2026-05-06 15:49 43.87793 2.28057 33922 ft 419 kts 280°
2026-05-06 15:50 43.89115 2.20205 33921 ft 420 kts 280°
2026-05-06 15:50 43.90442 2.12297 33918 ft 421 kts 281°
2026-05-06 15:51 43.91751 2.04459 33916 ft 421 kts 281°
2026-05-06 15:51 43.93071 1.96518 33931 ft 421 kts 281°
2026-05-06 15:52 43.94441 1.88617 33931 ft 422 kts 283°
2026-05-06 15:52 43.96305 1.80916 33931 ft 424 kts 289°
2026-05-06 15:53 43.98771 1.73452 33926 ft 426 kts 295°
2026-05-06 15:53 44.01509 1.66174 33926 ft 426 kts 295°
2026-05-06 15:54 44.04265 1.58874 33929 ft 427 kts 296°
2026-05-06 15:54 44.07010 1.51573 33930 ft 427 kts 296°
2026-05-06 15:55 44.09747 1.44265 33930 ft 428 kts 296°
2026-05-06 15:55 44.12494 1.36915 33926 ft 428 kts 296°
2026-05-06 15:56 44.15217 1.29604 33923 ft 427 kts 295°
2026-05-06 15:56 44.17937 1.22283 33927 ft 427 kts 296°
2026-05-06 15:57 44.20673 1.14899 33923 ft 427 kts 296°
2026-05-06 15:57 44.23378 1.07586 33924 ft 428 kts 296°
2026-05-06 15:58 44.26105 1.00192 33925 ft 428 kts 296°
2026-05-06 15:58 44.28806 0.92840 33917 ft 428 kts 296°
2026-05-06 15:59 44.31516 0.85448 33918 ft 428 kts 296°
2026-05-06 15:59 44.34210 0.78084 33919 ft 428 kts 296°
2026-05-06 16:00 44.36908 0.70690 33920 ft 427 kts 296°
2026-05-06 16:00 44.39595 0.63306 33921 ft 426 kts 297°
2026-05-06 16:01 44.42854 0.56408 33924 ft 428 kts 309°
2026-05-06 16:01 44.47079 0.50560 33929 ft 429 kts 320°
2026-05-06 16:02 44.52102 0.46033 33931 ft 431 kts 332°
2026-05-06 16:02 44.57497 0.42404 33925 ft 430 kts 334°
2026-05-06 16:03 44.62913 0.38836 33933 ft 430 kts 334°
2026-05-06 16:03 44.68296 0.35265 33928 ft 429 kts 334°
2026-05-06 16:04 44.73676 0.31678 33925 ft 428 kts 333°
2026-05-06 16:04 44.79065 0.28075 33932 ft 428 kts 333°
2026-05-06 16:05 44.84449 0.24466 33935 ft 427 kts 333°
2026-05-06 16:05 44.89792 0.20879 33934 ft 427 kts 333°
2026-05-06 16:06 44.95150 0.17274 33926 ft 427 kts 334°
2026-05-06 16:06 45.00534 0.13646 33913 ft 427 kts 334°
2026-05-06 16:07 45.05861 0.10044 33925 ft 426 kts 334°
2026-05-06 16:07 45.11212 0.06411 33918 ft 426 kts 334°
2026-05-06 16:08 45.16543 0.02787 33920 ft 426 kts 334°
2026-05-06 16:08 45.21868 -0.00839 33915 ft 426 kts 334°
2026-05-06 16:09 45.27185 -0.04469 33916 ft 425 kts 334°
2026-05-06 16:09 45.32509 -0.08108 33924 ft 425 kts 334°
2026-05-06 16:10 45.37832 -0.11755 33914 ft 426 kts 334°
2026-05-06 16:10 45.43142 -0.15399 33927 ft 425 kts 334°
2026-05-06 16:11 45.48460 -0.19057 33919 ft 425 kts 334°
2026-05-06 16:11 45.53791 -0.22732 33934 ft 425 kts 334°
2026-05-06 16:12 45.59100 -0.26401 33933 ft 425 kts 334°
2026-05-06 16:12 45.64354 -0.30282 33712 ft 424 kts 330°
2026-05-06 16:13 45.66835 -0.32482 33430 ft 421 kts 327°
2026-05-06 16:13 45.69213 -0.34862 33013 ft 419 kts 324°
2026-05-06 16:13 45.71497 -0.37377 32446 ft 418 kts 323°
2026-05-06 16:13 45.73785 -0.39956 31810 ft 417 kts 323°
2026-05-06 16:14 45.76034 -0.42502 31180 ft 415 kts 324°
2026-05-06 16:14 45.78301 -0.45069 30481 ft 414 kts 324°
2026-05-06 16:14 45.80535 -0.47595 29747 ft 413 kts 324°
2026-05-06 16:14 45.82779 -0.50133 28975 ft 412 kts 324°
2026-05-06 16:15 45.85030 -0.52680 28255 ft 410 kts 323°
2026-05-06 16:15 45.87259 -0.55209 27756 ft 408 kts 323°
2026-05-06 16:15 45.89467 -0.57716 27238 ft 405 kts 323°
2026-05-06 16:15 45.91660 -0.60210 26714 ft 401 kts 323°
2026-05-06 16:16 45.93822 -0.62667 26173 ft 398 kts 323°
2026-05-06 16:16 45.95988 -0.65134 25621 ft 394 kts 322°
2026-05-06 16:16 45.98103 -0.67546 25105 ft 389 kts 323°
2026-05-06 16:16 46.00219 -0.69959 24578 ft 386 kts 322°
2026-05-06 16:17 46.02303 -0.72337 24065 ft 382 kts 322°
2026-05-06 16:17 46.04381 -0.74713 23530 ft 379 kts 322°
2026-05-06 16:17 46.06417 -0.77044 23020 ft 375 kts 322°
2026-05-06 16:17 46.08436 -0.79357 22505 ft 372 kts 322°
2026-05-06 16:18 46.10450 -0.81665 21997 ft 369 kts 322°
2026-05-06 16:18 46.12470 -0.83982 21482 ft 366 kts 322°
2026-05-06 16:18 46.14445 -0.86250 20959 ft 364 kts 322°
2026-05-06 16:18 46.16410 -0.88510 20435 ft 362 kts 322°
2026-05-06 16:19 46.18362 -0.90755 19911 ft 360 kts 322°
2026-05-06 16:19 46.20327 -0.93019 19382 ft 358 kts 322°
2026-05-06 16:19 46.22250 -0.95237 18874 ft 357 kts 322°
2026-05-06 16:19 46.24215 -0.97506 18342 ft 357 kts 322°
2026-05-06 16:20 46.26124 -0.99713 17828 ft 356 kts 322°
2026-05-06 16:20 46.28074 -1.01970 17291 ft 355 kts 322°
2026-05-06 16:20 46.29984 -1.04180 16786 ft 355 kts 322°
2026-05-06 16:20 46.31914 -1.06416 16271 ft 354 kts 322°
2026-05-06 16:21 46.33823 -1.08632 15764 ft 353 kts 322°
2026-05-06 16:21 46.35724 -1.10839 15265 ft 352 kts 321°
2026-05-06 16:21 46.37619 -1.13040 14768 ft 351 kts 321°
2026-05-06 16:21 46.39516 -1.15247 14248 ft 350 kts 321°
2026-05-06 16:22 46.41400 -1.17440 13725 ft 349 kts 321°
2026-05-06 16:22 46.43277 -1.19629 13224 ft 347 kts 321°
2026-05-06 16:22 46.45169 -1.21837 12718 ft 344 kts 322°
2026-05-06 16:22 46.47002 -1.23974 12230 ft 341 kts 321°
2026-05-06 16:23 46.48839 -1.26120 11747 ft 338 kts 321°
2026-05-06 16:23 46.50661 -1.28251 11269 ft 335 kts 321°
2026-05-06 16:23 46.52471 -1.30368 10783 ft 331 kts 322°
2026-05-06 16:23 46.54219 -1.32416 10522 ft 319 kts 322°
2026-05-06 16:24 46.55923 -1.34407 10371 ft 305 kts 323°
2026-05-06 16:24 46.57559 -1.36228 10161 ft 294 kts 324°
2026-05-06 16:24 46.59193 -1.38015 9807 ft 289 kts 324°
2026-05-06 16:24 46.60784 -1.39754 9444 ft 284 kts 324°
2026-05-06 16:25 46.62336 -1.41455 9079 ft 282 kts 324°
2026-05-06 16:25 46.63911 -1.43186 8640 ft 282 kts 324°
2026-05-06 16:25 46.65468 -1.44900 8228 ft 280 kts 324°
2026-05-06 16:25 46.67001 -1.46589 7862 ft 276 kts 324°
2026-05-06 16:26 46.68517 -1.48264 7519 ft 273 kts 324°
2026-05-06 16:26 46.70025 -1.49931 7172 ft 270 kts 324°
2026-05-06 16:26 46.71508 -1.51568 6846 ft 267 kts 325°
2026-05-06 16:26 46.72976 -1.53189 6498 ft 266 kts 325°
2026-05-06 16:27 46.74436 -1.54803 6149 ft 264 kts 325°
2026-05-06 16:27 46.75890 -1.56411 5793 ft 262 kts 325°
2026-05-06 16:27 46.77344 -1.58022 5467 ft 261 kts 325°
2026-05-06 16:27 46.78785 -1.59618 5126 ft 259 kts 325°
2026-05-06 16:28 46.80195 -1.61181 4801 ft 257 kts 325°
2026-05-06 16:28 46.81609 -1.62750 4477 ft 255 kts 324°
2026-05-06 16:28 46.83013 -1.64309 4151 ft 253 kts 324°
2026-05-06 16:28 46.84415 -1.65865 3822 ft 251 kts 323°
2026-05-06 16:29 46.85802 -1.67406 3506 ft 249 kts 324°
2026-05-06 16:29 46.87151 -1.68909 3395 ft 238 kts 324°
2026-05-06 16:29 46.88432 -1.70338 3311 ft 227 kts 324°
2026-05-06 16:29 46.89660 -1.71710 3227 ft 216 kts 324°
2026-05-06 16:30 46.90829 -1.73017 3145 ft 206 kts 324°
2026-05-06 16:30 46.91585 -1.73862 3094 ft 202 kts 324°
2026-05-06 16:30 46.93066 -1.75517 3030 ft 201 kts 324°
2026-05-06 16:30 46.94321 -1.76327 3011 ft 199 kts 357°
2026-05-06 16:31 46.95681 -1.75967 3028 ft 199 kts 21°
2026-05-06 16:31 46.96932 -1.75133 3027 ft 200 kts 26°
2026-05-06 16:31 46.98172 -1.74185 3026 ft 200 kts 27°
2026-05-06 16:31 46.99373 -1.73248 3111 ft 187 kts 27°
2026-05-06 16:32 47.00471 -1.72396 3044 ft 173 kts 27°
2026-05-06 16:32 47.01523 -1.71588 2846 ft 167 kts 26°
2026-05-06 16:32 47.02546 -1.70806 2619 ft 163 kts 26°
2026-05-06 16:32 47.03525 -1.70057 2403 ft 158 kts 26°
2026-05-06 16:33 47.04495 -1.69316 2189 ft 154 kts 26°
2026-05-06 16:33 47.05430 -1.68604 1985 ft 149 kts 26°
2026-05-06 16:33 47.06331 -1.67918 1792 ft 142 kts 26°
2026-05-06 16:34 47.07952 -1.66686 1434 ft 126 kts 26°
2026-05-06 16:34 47.08729 -1.66095 1271 ft 125 kts 27°
2026-05-06 16:34 47.09503 -1.65506 1106 ft 125 kts 29°
2026-05-06 16:34 47.10268 -1.64918 943 ft 125 kts 28°
2026-05-06 16:35 47.11041 -1.64329 775 ft 124 kts 26°
2026-05-06 16:35 47.11806 -1.63747 608 ft 124 kts 27°
2026-05-06 16:35 47.12575 -1.63163 439 ft 124 kts 29°
2026-05-06 16:35 47.13344 -1.62575 271 ft 124 kts 31°
2026-05-06 16:36 47.14096 -1.62005 118 ft 122 kts 27°
2026-05-06 16:36 47.14791 -1.61475 84 ft 91 kts 27°
2026-05-06 16:36 47.15223 -1.61145 87 ft 58 kts 27°
2026-05-06 16:36 47.15558 -1.60890 84 ft 51 kts 28°
2026-05-06 16:37 47.15800 -1.60705 84 ft 19 kts 31°
2026-05-06 16:37 47.15832 -1.60575 84 ft 14 kts 115°
2026-05-06 16:37 47.15799 -1.60507 84 ft 0 kts 133°
2026-05-06 16:37 47.15790 -1.60495 84 ft 2 kts 138°
2026-05-06 16:38 47.15770 -1.60471 84 ft 4 kts 144°
2026-05-06 16:38 47.15738 -1.60438 84 ft 6 kts 129°
2026-05-06 16:38 47.15731 -1.60364 84 ft 8 kts 88°
2026-05-06 16:38 47.15732 -1.60315 84 ft 0 kts 89°